Terminal Aerodrome Forecast
Issued by NWS

Home | Current Version | Previous Version | Text Only | Print | Product List | Glossary On
Versions: 1 2 3 4 5 6 7 8 9 10 11 12 13 14 15
000
FTUS43 KDVN 201700
TAFCID
TAF
KCID 201720Z 2018/2118 33013G17KT P6SM FEW040
     FM202300 36007KT P6SM SKC
     FM211200 03006KT P6SM SKC
     FM211500 05007KT P6SM SKC=

USA.gov is the U.S. government's official web portal to all federal, state and local government web resources and services.